STARLINK-1502, 45764

Orbit data source: Space-Track

STARLINK-1502, 45764 is a payload satellite owned by SpaceX/Seattle (US) in LEO that was launched on Sat, 13 Jun 2020 UTC via an FALCON 9 launch vehicle from the Air Force Eastern Test Range (AFETR). Payload-class satellites include a variety of spacecraft equipped with specific instruments for various scientific and technological missions. These include communications satellites like Starlink; space stations such as the ISS; scientific satellites like the Hubble; Earth observation satellites from companies like Planet Labs, Umbra, and HawkEye 360; GPS; miniature CubeSats for education and research; and military/defense satellites.

Loading next visibility...
Identifier
45764, 2020-038AL
Orbit
LEO
Country
Flag of USUS
Related business
Manufacturer
SpaceX/Seattle
Mission
Operational Commercial Communications
Bus & Motor
STARLINK, Unknown motor
Mass
260 kg wet, ~248 kg dry
Launch date (UTC)
2020-06-13 (6 years ago)
Launch vehicle
FALCON 9
Launch site
Air Force Eastern Test Range (AFETR)
Object type
Payload
Rocket body
Debris
Shape & HBR
Box + 1 Pan, 10.1 m
Radar Cross Section
13.562 m², Large (>1 m²)

Expand to show TLE details & history
Last TLE update: 14 hours ago

TLE from 14 hours ago
0 STARLINK-1502
1 45764U 20038AL  26033.66670139  .00876572  00000-0  27312-1 0  9992
2 45764  53.0538  12.1389 0001594 104.5575 110.0004 15.30457773  5803
Epoch: 2026-02-02T16:00Z
TLE epoch observation values (Epoch: 2026-02-02T16:00:03.000Z)
Latitude
-27.17197°
Longitude
-158.15557°
Altitude
482.876 km
Speed
7.624 km/s
True Right ascension
14h 18m 51s
True Declination
-27° 01' 37"
Sunlit
Object was in daylight at epoch
Visualization orbit readout
Latitude
Unknown
Longitude
Unknown
Altitude
Unknown
Speed
Unknown
Apparent Right ascension
Unknown
Apparent Declination
Unknown
Sunlit
N/A
Visualization observer readout
Local Sidereal Time
07:48:20
Azimuth
Unknown
Elevation
Unknown
Doppler factor
Unknown
Orbital elements
Apogee altitude
475.811 km
Perigee altitude
473.627 km
Semi-major axis
6,852.856 km
Eccentricity
0.00016
Inclination
53.0538°
RAAN
12.1389°
Arg. of periapsis
104.5575°
True anomaly
110.01756°
Mean anomaly
110.0004°
Eccentric anomaly
110.00898°
Mean motion
3.82592 °/min
Orbital period
94.1 mins
BSTAR
0.027312
Loading maneuver chart data...
Computing Atmospheric mass density...
Loading historical data...
Loading historical data...
Loading historical data...
Loading historical data...
Loading historical data...
Loading historical data...
Loading historical data...

Documentation

Showing up to 5 results
|